Tracking 19817 objects as of 19-Aug-2019
HD Live streaming from Space Station
objects crossing your sky now

COSMOS 2251 DEB

Track COSMOS 2251 DEB now!
10-day predictions


NORAD ID: 36074
Int'l Code: 1993-036AYM
Perigee: 758.2 km
Apogee: 836.4 km
Inclination: 74.0 °
Period: 100.7 minutes
Semi major axis: 7168 km
RCS: 0.0022 m2 (small)
Launch date: June 16, 1993
Source: Commonwealth of Independent States (former USSR) (CIS)
Launch site: PLESETSK MISSILE AND SPACE COMPLEX (PKMTR)

Note: This is SATELLITE DEBRIS
aabbcc
Your satellite tracking list
Your tracking list is empty




NASA's NSSDC Master Catalog

Two Line Element Set (TLE):
1 36074U 93036AYM 19230.46142765 +.00000270 +00000-0 +11192-3 0  9997
2 36074 073.9945 256.5740 0054502 163.7548 196.5365 14.30466670528173
Source of the keplerian elements: AFSPC